TimeHST,TemperatureF,Dew PointF,Humidity,Sea Level PressureIn,VisibilityMPH,Wind Direction,Wind SpeedMPH,Gust SpeedMPH,PrecipitationIn,Events,Conditions,WindDirDegrees,DateUTC
12:53 AM,72.0,66.0,81,30.08,10.0,Calm,Calm,-,N/A,,Clear,0,2013-10-08 10:53:00
1:53 AM,72.0,66.0,81,30.07,10.0,Calm,Calm,-,N/A,,Clear,0,2013-10-08 11:53:00
2:49 AM,71.6,66.2,83,30.04,10.0,Calm,Calm,-,N/A,,Partly Cloudy,0,2013-10-08 12:49:00
2:53 AM,71.1,66.0,84,30.06,10.0,Calm,Calm,-,N/A,,Clear,0,2013-10-08 12:53:00
3:53 AM,72.0,66.0,81,30.05,10.0,Calm,Calm,-,N/A,,Scattered Clouds,0,2013-10-08 13:53:00
4:53 AM,71.1,66.0,84,30.06,10.0,Calm,Calm,-,N/A,,Clear,0,2013-10-08 14:53:00
5:53 AM,72.0,66.0,81,30.07,10.0,ENE,4.6,-,N/A,,Clear,70,2013-10-08 15:53:00
6:53 AM,72.0,66.0,81,30.08,10.0,Calm,Calm,-,N/A,,Clear,0,2013-10-08 16:53:00
7:53 AM,75.9,66.9,74,30.09,10.0,Variable,5.8,-,N/A,,Clear,0,2013-10-08 17:53:00
8:53 AM,81.0,66.0,60,30.10,10.0,Variable,6.9,-,N/A,,Clear,0,2013-10-08 18:53:00
9:53 AM,82.9,64.0,53,30.09,10.0,East,12.7,21.9,N/A,,Clear,90,2013-10-08 19:53:00
10:53 AM,82.9,66.0,56,30.09,10.0,East,9.2,20.7,N/A,,Partly Cloudy,90,2013-10-08 20:53:00
11:53 AM,84.9,64.9,51,30.07,10.0,East,11.5,18.4,N/A,,Partly Cloudy,80,2013-10-08 21:53:00
12:53 PM,82.0,66.9,60,30.06,10.0,NE,9.2,24.2,N/A,,Scattered Clouds,50,2013-10-08 22:53:00
1:53 PM,84.0,64.0,51,30.04,10.0,ENE,9.2,17.3,N/A,,Scattered Clouds,70,2013-10-08 23:53:00
2:53 PM,82.9,64.9,54,30.04,10.0,East,13.8,20.7,N/A,,Mostly Cloudy,80,2013-10-09 00:53:00
3:43 PM,82.4,66.2,58,30.01,10.0,NE,9.2,16.1,N/A,,Scattered Clouds,50,2013-10-09 01:43:00
3:53 PM,80.1,64.9,60,30.04,10.0,ENE,9.2,21.9,N/A,,Mostly Cloudy,70,2013-10-09 01:53:00
4:53 PM,80.1,66.0,62,30.04,10.0,Variable,5.8,-,N/A,,Overcast,0,2013-10-09 02:53:00
5:53 PM,73.9,68.0,82,30.06,10.0,Calm,Calm,-,0.00,,Overcast,0,2013-10-09 03:53:00
6:53 PM,75.9,66.0,71,30.07,10.0,ENE,3.5,-,N/A,,Mostly Cloudy,70,2013-10-09 04:53:00
7:53 PM,75.0,66.9,76,30.08,10.0,Variable,4.6,-,N/A,,Scattered Clouds,0,2013-10-09 05:53:00
8:53 PM,73.9,66.0,76,30.09,10.0,Calm,Calm,-,N/A,,Clear,0,2013-10-09 06:53:00
9:53 PM,73.9,66.9,79,30.10,10.0,Calm,Calm,-,N/A,,Clear,0,2013-10-09 07:53:00
10:53 PM,73.9,66.9,79,30.08,10.0,Variable,3.5,-,N/A,,Partly Cloudy,0,2013-10-09 08:53:00
11:53 PM,73.9,66.0,76,30.07,10.0,Calm,Calm,-,N/A,,Clear,0,2013-10-09 09:53:00